Time,TemperatureF,DewpointF,PressureIn,WindDirection,WindDirectionDegrees,WindSpeedMPH,WindSpeedGustMPH,Humidity,HourlyPrecipIn,Conditions,Clouds,dailyrainin,SoftwareType,DateUTC
2014-02-05 00:01:00,24.5,22.8,30.01,South,188,3.0,9.0,93,0.00,,,0.00,WUHU216DAVISVP2,2014-02-05 06:01:00,
2014-02-05 00:06:00,24.4,22.7,30.02,SSE,164,5.0,10.0,93,0.00,,,0.00,WUHU216DAVISVP2,2014-02-05 06:06:00,
2014-02-05 00:11:00,24.2,22.5,30.02,SSE,158,5.0,10.0,93,0.00,,,0.00,WUHU216DAVISVP2,2014-02-05 06:11:00,
2014-02-05 00:16:00,24.1,22.1,30.03,South,171,5.0,11.0,92,0.00,,,0.00,WUHU216DAVISVP2,2014-02-05 06:16:00,
2014-02-05 00:21:00,24.0,22.0,30.03,SSE,162,0.0,11.0,92,0.00,,,0.00,WUHU216DAVISVP2,2014-02-05 06:21:00,
2014-02-05 00:26:00,23.8,21.8,30.03,SSE,154,6.0,11.0,92,0.00,,,0.00,WUHU216DAVISVP2,2014-02-05 06:26:00,
2014-02-05 00:31:00,23.7,21.7,30.03,South,171,7.0,11.0,92,0.00,,,0.00,WUHU216DAVISVP2,2014-02-05 06:31:00,
2014-02-05 00:36:00,23.5,21.5,30.04,South,181,7.0,12.0,92,0.00,,,0.00,WUHU216DAVISVP2,2014-02-05 06:36:00,
2014-02-05 00:41:00,22.9,20.6,30.04,SE,145,9.0,14.0,91,0.00,,,0.00,WUHU216DAVISVP2,2014-02-05 06:41:00,
2014-02-05 00:46:00,22.6,20.3,30.04,South,181,6.0,14.0,91,0.00,,,0.00,WUHU216DAVISVP2,2014-02-05 06:46:00,
2014-02-05 00:51:00,22.3,20.0,30.05,South,171,1.0,14.0,91,0.00,,,0.00,WUHU216DAVISVP2,2014-02-05 06:51:00,
2014-02-05 00:56:00,22.2,19.9,30.05,SW,216,12.0,13.0,91,0.00,,,0.00,WUHU216DAVISVP2,2014-02-05 06:56:00,
2014-02-05 01:01:00,21.8,19.5,30.05,SSW,212,3.0,14.0,91,0.00,,,0.00,WUHU216DAVISVP2,2014-02-05 07:01:00,
2014-02-05 01:06:00,21.4,18.9,30.06,South,184,5.0,14.0,90,0.00,,,0.00,WUHU216DAVISVP2,2014-02-05 07:06:00,
2014-02-05 01:11:00,21.2,18.7,30.06,SSE,154,8.0,14.0,90,0.00,,,0.00,WUHU216DAVISVP2,2014-02-05 07:11:00,
2014-02-05 01:16:00,21.0,18.5,30.07,SSE,166,6.0,14.0,90,0.00,,,0.00,WUHU216DAVISVP2,2014-02-05 07:16:00,
2014-02-05 01:21:00,20.6,18.1,30.07,South,176,7.0,14.0,90,0.00,,,0.00,WUHU216DAVISVP2,2014-02-05 07:21:00,
2014-02-05 01:26:00,20.4,17.9,30.07,South,180,7.0,14.0,90,0.00,,,0.00,WUHU216DAVISVP2,2014-02-05 07:26:00,
2014-02-05 01:31:00,20.2,17.7,30.08,South,179,9.0,17.0,90,0.00,,,0.00,WUHU216DAVISVP2,2014-02-05 07:31:00,
2014-02-05 01:36:00,20.1,17.6,30.08,SE,125,7.0,17.0,90,0.00,,,0.00,WUHU216DAVISVP2,2014-02-05 07:36:00,
2014-02-05 01:41:00,20.0,17.5,30.08,South,170,7.0,17.0,90,0.00,,,0.00,WUHU216DAVISVP2,2014-02-05 07:41:00,
2014-02-05 01:46:00,19.7,17.0,30.09,SSW,199,12.0,17.0,89,0.00,,,0.00,WUHU216DAVISVP2,2014-02-05 07:46:00,
2014-02-05 01:51:00,19.5,16.8,30.10,South,172,12.0,17.0,89,0.00,,,0.00,WUHU216DAVISVP2,2014-02-05 07:51:00,
2014-02-05 01:56:00,19.4,16.7,30.10,South,191,7.0,17.0,89,0.00,,,0.00,WUHU216DAVISVP2,2014-02-05 07:56:00,
2014-02-05 02:01:00,19.5,16.7,30.10,SSE,162,4.0,17.0,89,0.00,,,0.00,WUHU216DAVISVP2,2014-02-05 08:01:00,
2014-02-05 02:06:00,19.5,17.0,30.11,South,176,7.0,17.0,90,0.00,,,0.00,WUHU216DAVISVP2,2014-02-05 08:06:00,
2014-02-05 02:11:00,19.4,16.9,30.11,South,171,3.0,15.0,90,0.00,,,0.00,WUHU216DAVISVP2,2014-02-05 08:11:00,
2014-02-05 02:16:00,19.3,16.8,30.11,South,174,11.0,17.0,90,0.00,,,0.00,WUHU216DAVISVP2,2014-02-05 08:16:00,
2014-02-05 02:21:00,19.1,16.6,30.12,SE,145,5.0,17.0,90,0.00,,,0.00,WUHU216DAVISVP2,2014-02-05 08:21:00,
2014-02-05 02:26:00,18.8,16.1,30.12,SSE,168,11.0,17.0,89,0.00,,,0.00,WUHU216DAVISVP2,2014-02-05 08:26:00,
2014-02-05 02:31:00,18.4,15.7,30.13,South,176,6.0,17.0,89,0.00,,,0.00,WUHU216DAVISVP2,2014-02-05 08:31:00,
2014-02-05 02:36:00,18.0,15.3,30.13,SE,141,16.0,16.0,89,0.00,,,0.00,WUHU216DAVISVP2,2014-02-05 08:36:00,
2014-02-05 02:41:00,17.8,15.1,30.13,South,176,12.0,18.0,89,0.00,,,0.00,WUHU216DAVISVP2,2014-02-05 08:41:00,
2014-02-05 02:46:00,17.8,15.0,30.14,SSE,156,3.0,18.0,89,0.00,,,0.00,WUHU216DAVISVP2,2014-02-05 08:46:00,
2014-02-05 02:51:00,17.5,14.5,30.14,SSE,152,6.0,18.0,88,0.00,,,0.00,WUHU216DAVISVP2,2014-02-05 08:51:00,
2014-02-05 02:56:00,17.2,14.2,30.14,South,177,7.0,19.0,88,0.00,,,0.00,WUHU216DAVISVP2,2014-02-05 08:56:00,
2014-02-05 03:01:00,17.1,14.1,30.15,SSE,166,15.0,19.0,88,0.00,,,0.00,WUHU216DAVISVP2,2014-02-05 09:01:00,
2014-02-05 03:06:00,17.1,14.1,30.16,SSE,159,1.0,19.0,88,0.00,,,0.00,WUHU216DAVISVP2,2014-02-05 09:06:00,
2014-02-05 03:11:00,17.1,14.1,30.16,SE,135,9.0,19.0,88,0.00,,,0.00,WUHU216DAVISVP2,2014-02-05 09:11:00,
2014-02-05 03:16:00,17.2,14.2,30.17,SSE,153,3.0,17.0,88,0.00,,,0.00,WUHU216DAVISVP2,2014-02-05 09:16:00,
2014-02-05 03:21:00,17.2,14.2,30.17,SE,134,8.0,17.0,88,0.00,,,0.00,WUHU216DAVISVP2,2014-02-05 09:21:00,
2014-02-05 03:26:00,17.0,14.0,30.17,SSE,152,7.0,21.0,88,0.00,,,0.00,WUHU216DAVISVP2,2014-02-05 09:26:00,
2014-02-05 03:31:00,16.9,13.9,30.18,SSE,156,4.0,21.0,88,0.00,,,0.00,WUHU216DAVISVP2,2014-02-05 09:31:00,
2014-02-05 03:36:00,16.8,13.8,30.18,SSE,160,9.0,20.0,88,0.00,,,0.00,WUHU216DAVISVP2,2014-02-05 09:36:00,
2014-02-05 03:41:00,16.7,13.8,30.19,South,173,3.0,20.0,88,0.00,,,0.00,WUHU216DAVISVP2,2014-02-05 09:41:00,
2014-02-05 03:46:00,16.8,13.8,30.19,SSE,162,7.0,17.0,88,0.00,,,0.00,WUHU216DAVISVP2,2014-02-05 09:46:00,
2014-02-05 03:51:00,16.8,13.8,30.19,SSE,156,9.0,17.0,88,0.00,,,0.00,WUHU216DAVISVP2,2014-02-05 09:51:00,
2014-02-05 03:56:00,16.8,13.8,30.20,SSE,165,3.0,17.0,88,0.00,,,0.00,WUHU216DAVISVP2,2014-02-05 09:56:00,
2014-02-05 04:01:00,16.7,13.8,30.20,SSE,160,6.0,17.0,88,0.00,,,0.00,WUHU216DAVISVP2,2014-02-05 10:01:00,
2014-02-05 04:06:00,16.8,13.8,30.20,SSE,160,11.0,19.0,88,0.00,,,0.00,WUHU216DAVISVP2,2014-02-05 10:06:00,
2014-02-05 04:11:00,16.7,13.7,30.21,South,178,5.0,20.0,88,0.00,,,0.00,WUHU216DAVISVP2,2014-02-05 10:11:00,
2014-02-05 04:16:00,16.7,13.7,30.22,SE,138,10.0,20.0,88,0.00,,,0.00,WUHU216DAVISVP2,2014-02-05 10:16:00,
2014-02-05 04:21:00,16.7,13.5,30.23,SSE,153,11.0,20.0,87,0.00,,,0.00,WUHU216DAVISVP2,2014-02-05 10:21:00,
2014-02-05 04:26:00,16.8,13.5,30.23,SSE,161,8.0,20.0,87,0.00,,,0.00,WUHU216DAVISVP2,2014-02-05 10:26:00,
2014-02-05 04:31:00,16.8,13.5,30.23,SE,135,15.0,18.0,87,0.00,,,0.00,WUHU216DAVISVP2,2014-02-05 10:31:00,
2014-02-05 04:36:00,16.7,13.5,30.23,SSE,150,6.0,18.0,87,0.00,,,0.00,WUHU216DAVISVP2,2014-02-05 10:36:00,
2014-02-05 04:41:00,16.7,13.5,30.23,SE,142,14.0,18.0,87,0.00,,,0.00,WUHU216DAVISVP2,2014-02-05 10:41:00,
2014-02-05 04:46:00,16.8,13.5,30.23,SSE,167,10.0,17.0,87,0.00,,,0.00,WUHU216DAVISVP2,2014-02-05 10:46:00,
2014-02-05 04:51:00,16.8,13.6,30.24,SSW,196,4.0,17.0,87,0.00,,,0.00,WUHU216DAVISVP2,2014-02-05 10:51:00,
2014-02-05 04:56:00,16.7,13.5,30.24,SSE,156,6.0,17.0,87,0.00,,,0.00,WUHU216DAVISVP2,2014-02-05 10:56:00,
2014-02-05 05:01:00,16.7,13.4,30.24,SSW,206,11.0,22.0,87,0.00,,,0.00,WUHU216DAVISVP2,2014-02-05 11:01:00,
2014-02-05 05:06:00,16.6,13.1,30.25,SSE,155,7.0,22.0,86,0.00,,,0.00,WUHU216DAVISVP2,2014-02-05 11:06:00,
2014-02-05 05:11:00,16.5,13.3,30.25,SSE,168,9.0,22.0,87,0.00,,,0.00,WUHU216DAVISVP2,2014-02-05 11:11:00,
2014-02-05 05:16:00,16.5,13.1,30.26,SSE,159,5.0,22.0,86,0.00,,,0.00,WUHU216DAVISVP2,2014-02-05 11:16:00,
2014-02-05 05:21:00,16.5,13.0,30.26,SSE,156,15.0,22.0,86,0.00,,,0.00,WUHU216DAVISVP2,2014-02-05 11:21:00,
2014-02-05 05:26:00,16.4,12.9,30.26,SSE,154,19.0,22.0,86,0.00,,,0.00,WUHU216DAVISVP2,2014-02-05 11:26:00,
2014-02-05 05:31:00,16.2,12.5,30.27,SSE,164,12.0,21.0,85,0.00,,,0.00,WUHU216DAVISVP2,2014-02-05 11:31:00,
2014-02-05 05:36:00,16.2,12.2,30.28,South,187,11.0,21.0,84,0.00,,,0.00,WUHU216DAVISVP2,2014-02-05 11:36:00,
2014-02-05 05:41:00,16.1,12.1,30.28,SE,136,5.0,21.0,84,0.00,,,0.00,WUHU216DAVISVP2,2014-02-05 11:41:00,
2014-02-05 05:46:00,16.1,12.1,30.29,South,171,4.0,21.0,84,0.00,,,0.00,WUHU216DAVISVP2,2014-02-05 11:46:00,
2014-02-05 05:51:00,16.2,12.4,30.29,SSE,156,15.0,19.0,85,0.00,,,0.00,WUHU216DAVISVP2,2014-02-05 11:51:00,
2014-02-05 05:56:00,16.2,12.5,30.30,SSE,166,14.0,19.0,85,0.00,,,0.00,WUHU216DAVISVP2,2014-02-05 11:56:00,
2014-02-05 06:01:00,16.1,12.4,30.31,SE,136,10.0,19.0,85,0.00,,,0.00,WUHU216DAVISVP2,2014-02-05 12:01:00,
2014-02-05 06:06:00,16.1,12.3,30.31,SSE,154,10.0,22.0,85,0.00,,,0.00,WUHU216DAVISVP2,2014-02-05 12:06:00,
2014-02-05 06:11:00,15.8,11.8,30.32,SSW,203,14.0,23.0,84,0.00,,,0.00,WUHU216DAVISVP2,2014-02-05 12:11:00,
2014-02-05 06:16:00,15.5,11.5,30.33,South,190,11.0,23.0,84,0.00,,,0.00,WUHU216DAVISVP2,2014-02-05 12:16:00,
2014-02-05 06:21:00,15.3,11.0,30.33,SSW,201,12.0,23.0,83,0.00,,,0.00,WUHU216DAVISVP2,2014-02-05 12:21:00,
2014-02-05 06:26:00,15.2,11.2,30.33,South,186,3.0,23.0,84,0.00,,,0.00,WUHU216DAVISVP2,2014-02-05 12:26:00,
2014-02-05 06:31:00,15.2,11.5,30.34,SSE,162,8.0,20.0,85,0.00,,,0.00,WUHU216DAVISVP2,2014-02-05 12:31:00,
2014-02-05 06:36:00,15.3,11.5,30.34,South,185,10.0,19.0,85,0.00,,,0.00,WUHU216DAVISVP2,2014-02-05 12:36:00,
2014-02-05 06:41:00,15.2,11.2,30.34,South,181,11.0,20.0,84,0.00,,,0.00,WUHU216DAVISVP2,2014-02-05 12:41:00,
2014-02-05 06:46:00,15.1,11.4,30.35,SSE,153,7.0,20.0,85,0.00,,,0.00,WUHU216DAVISVP2,2014-02-05 12:46:00,
2014-02-05 06:51:00,15.2,11.5,30.35,South,172,7.0,20.0,85,0.00,,,0.00,WUHU216DAVISVP2,2014-02-05 12:51:00,
2014-02-05 06:56:00,15.1,11.4,30.35,SSE,158,13.0,19.0,85,0.00,,,0.00,WUHU216DAVISVP2,2014-02-05 12:56:00,
2014-02-05 07:01:00,15.0,11.2,30.35,SSW,194,13.0,20.0,85,0.00,,,0.00,WUHU216DAVISVP2,2014-02-05 13:01:00,
2014-02-05 07:06:00,14.9,10.9,30.35,South,175,19.0,20.0,84,0.00,,,0.00,WUHU216DAVISVP2,2014-02-05 13:06:00,
2014-02-05 07:11:00,14.9,10.9,30.36,South,189,7.0,21.0,84,0.00,,,0.00,WUHU216DAVISVP2,2014-02-05 13:11:00,
2014-02-05 07:16:00,14.9,10.9,30.36,South,176,6.0,21.0,84,0.00,,,0.00,WUHU216DAVISVP2,2014-02-05 13:16:00,
2014-02-05 07:21:00,15.0,11.3,30.37,South,191,8.0,21.0,85,0.00,,,0.00,WUHU216DAVISVP2,2014-02-05 13:21:00,
2014-02-05 07:26:00,15.0,11.3,30.37,SSW,193,13.0,21.0,85,0.00,,,0.00,WUHU216DAVISVP2,2014-02-05 13:26:00,
2014-02-05 07:31:00,14.8,11.1,30.38,SE,143,15.0,22.0,85,0.00,,,0.00,WUHU216DAVISVP2,2014-02-05 13:31:00,
2014-02-05 07:36:00,14.3,10.6,30.38,SSE,161,11.0,23.0,85,0.00,,,0.00,WUHU216DAVISVP2,2014-02-05 13:36:00,
2014-02-05 07:41:00,14.1,10.3,30.38,South,175,13.0,23.0,85,0.00,,,0.00,WUHU216DAVISVP2,2014-02-05 13:41:00,
2014-02-05 07:46:00,13.7,10.0,30.39,South,187,9.0,22.0,85,0.00,,,0.00,WUHU216DAVISVP2,2014-02-05 13:46:00,
2014-02-05 07:51:00,13.4,9.5,30.39,SSE,147,9.0,22.0,84,0.00,,,0.00,WUHU216DAVISVP2,2014-02-05 13:51:00,
2014-02-05 07:56:00,13.3,9.6,30.40,South,187,7.0,21.0,85,0.00,,,0.00,WUHU216DAVISVP2,2014-02-05 13:56:00,
2014-02-05 08:01:00,13.1,9.4,30.40,SE,141,14.0,21.0,85,0.00,,,0.00,WUHU216DAVISVP2,2014-02-05 14:01:00,
2014-02-05 08:06:00,12.5,8.6,30.40,South,172,7.0,21.0,84,0.00,,,0.00,WUHU216DAVISVP2,2014-02-05 14:06:00,
2014-02-05 08:11:00,11.9,8.0,30.41,SSE,153,10.0,21.0,84,0.00,,,0.00,WUHU216DAVISVP2,2014-02-05 14:11:00,
2014-02-05 08:16:00,11.3,7.4,30.41,SSE,150,15.0,23.0,84,0.00,,,0.00,WUHU216DAVISVP2,2014-02-05 14:16:00,
2014-02-05 08:21:00,11.1,7.2,30.42,SSE,156,8.0,23.0,84,0.00,,,0.00,WUHU216DAVISVP2,2014-02-05 14:21:00,
2014-02-05 08:26:00,10.8,6.9,30.42,SE,134,9.0,23.0,84,0.00,,,0.00,WUHU216DAVISVP2,2014-02-05 14:26:00,
2014-02-05 08:31:00,10.6,6.7,30.42,SE,146,8.0,23.0,84,0.00,,,0.00,WUHU216DAVISVP2,2014-02-05 14:31:00,
2014-02-05 08:36:00,10.4,6.5,30.43,SSE,168,4.0,19.0,84,0.00,,,0.00,WUHU216DAVISVP2,2014-02-05 14:36:00,
2014-02-05 08:41:00,10.2,6.0,30.43,South,177,11.0,20.0,83,0.00,,,0.00,WUHU216DAVISVP2,2014-02-05 14:41:00,
2014-02-05 08:46:00,9.9,6.0,30.44,SSE,163,13.0,20.0,84,0.00,,,0.00,WUHU216DAVISVP2,2014-02-05 14:46:00,
2014-02-05 08:51:00,9.5,5.4,30.45,South,178,10.0,20.0,83,0.00,,,0.00,WUHU216DAVISVP2,2014-02-05 14:51:00,
2014-02-05 08:56:00,9.2,5.1,30.45,South,169,7.0,21.0,83,0.00,,,0.00,WUHU216DAVISVP2,2014-02-05 14:56:00,
2014-02-05 09:01:00,9.0,4.9,30.45,SSE,153,10.0,21.0,83,0.00,,,0.00,WUHU216DAVISVP2,2014-02-05 15:01:00,
2014-02-05 09:06:00,8.9,4.8,30.45,SE,125,10.0,21.0,83,0.00,,,0.00,WUHU216DAVISVP2,2014-02-05 15:06:00,
2014-02-05 09:11:00,8.5,4.2,30.46,SE,143,11.0,21.0,82,0.00,,,0.00,WUHU216DAVISVP2,2014-02-05 15:11:00,
2014-02-05 09:16:00,8.2,3.8,30.46,SSE,154,10.0,18.0,82,0.00,,,0.00,WUHU216DAVISVP2,2014-02-05 15:16:00,
2014-02-05 09:21:00,8.0,3.8,30.46,SE,138,9.0,18.0,83,0.00,,,0.00,WUHU216DAVISVP2,2014-02-05 15:21:00,
2014-02-05 09:26:00,7.9,3.8,30.46,South,179,16.0,19.0,83,0.00,,,0.00,WUHU216DAVISVP2,2014-02-05 15:26:00,
2014-02-05 09:31:00,7.7,3.3,30.46,SSE,152,16.0,19.0,82,0.00,,,0.00,WUHU216DAVISVP2,2014-02-05 15:31:00,
2014-02-05 09:36:00,7.5,3.2,30.46,South,181,7.0,19.0,82,0.00,,,0.00,WUHU216DAVISVP2,2014-02-05 15:36:00,
2014-02-05 09:41:00,7.5,3.1,30.47,SSE,166,6.0,19.0,82,0.00,,,0.00,WUHU216DAVISVP2,2014-02-05 15:41:00,
2014-02-05 09:46:00,7.4,2.7,30.47,South,177,14.0,19.0,81,0.00,,,0.00,WUHU216DAVISVP2,2014-02-05 15:46:00,
2014-02-05 09:51:00,7.3,3.0,30.47,South,176,8.0,17.0,82,0.00,,,0.00,WUHU216DAVISVP2,2014-02-05 15:51:00,
2014-02-05 09:56:00,7.6,3.2,30.47,SSE,166,7.0,17.0,82,0.00,,,0.00,WUHU216DAVISVP2,2014-02-05 15:56:00,
2014-02-05 10:01:00,7.6,3.2,30.47,SSE,155,6.0,17.0,82,0.00,,,0.00,WUHU216DAVISVP2,2014-02-05 16:01:00,
2014-02-05 10:06:00,7.4,2.8,30.47,SSE,154,7.0,15.0,81,0.00,,,0.00,WUHU216DAVISVP2,2014-02-05 16:06:00,
2014-02-05 10:11:00,6.9,2.1,30.47,SSE,165,14.0,17.0,80,0.00,,,0.00,WUHU216DAVISVP2,2014-02-05 16:11:00,
2014-02-05 10:16:00,6.5,1.9,30.48,South,177,6.0,20.0,81,0.00,,,0.00,WUHU216DAVISVP2,2014-02-05 16:16:00,
2014-02-05 10:21:00,6.6,2.0,30.48,SE,130,12.0,20.0,81,0.00,,,0.00,WUHU216DAVISVP2,2014-02-05 16:21:00,
2014-02-05 10:26:00,6.4,1.8,30.49,SE,139,10.0,20.0,81,0.00,,,0.00,WUHU216DAVISVP2,2014-02-05 16:26:00,
2014-02-05 10:31:00,6.5,2.1,30.49,South,172,3.0,20.0,82,0.00,,,0.00,WUHU216DAVISVP2,2014-02-05 16:31:00,
2014-02-05 10:36:00,6.5,2.0,30.50,SSE,161,13.0,17.0,81,0.00,,,0.00,WUHU216DAVISVP2,2014-02-05 16:36:00,
2014-02-05 10:41:00,6.3,1.7,30.50,SE,139,11.0,17.0,81,0.00,,,0.00,WUHU216DAVISVP2,2014-02-05 16:41:00,
2014-02-05 10:46:00,6.1,1.6,30.51,SE,138,8.0,15.0,81,0.00,,,0.00,WUHU216DAVISVP2,2014-02-05 16:46:00,
2014-02-05 10:51:00,5.9,1.4,30.51,SSE,149,10.0,15.0,81,0.00,,,0.00,WUHU216DAVISVP2,2014-02-05 16:51:00,
2014-02-05 10:56:00,6.0,1.5,30.51,SSE,152,8.0,15.0,81,0.00,,,0.00,WUHU216DAVISVP2,2014-02-05 16:56:00,
2014-02-05 11:01:00,6.1,1.6,30.51,SSE,151,10.0,15.0,81,0.00,,,0.00,WUHU216DAVISVP2,2014-02-05 17:01:00,
2014-02-05 11:06:00,6.1,1.2,30.51,SSE,147,12.0,16.0,80,0.00,,,0.00,WUHU216DAVISVP2,2014-02-05 17:06:00,
2014-02-05 11:11:00,6.1,1.2,30.51,SE,131,9.0,18.0,80,0.00,,,0.00,WUHU216DAVISVP2,2014-02-05 17:11:00,
2014-02-05 11:16:00,6.4,1.8,30.51,South,181,9.0,18.0,81,0.00,,,0.00,WUHU216DAVISVP2,2014-02-05 17:16:00,
2014-02-05 11:21:00,6.7,1.8,30.51,South,180,6.0,18.0,80,0.00,,,0.00,WUHU216DAVISVP2,2014-02-05 17:21:00,
2014-02-05 11:26:00,6.7,1.9,30.50,SE,133,10.0,15.0,80,0.00,,,0.00,WUHU216DAVISVP2,2014-02-05 17:26:00,
2014-02-05 11:31:00,6.6,1.7,30.50,SE,146,8.0,15.0,80,0.00,,,0.00,WUHU216DAVISVP2,2014-02-05 17:31:00,
2014-02-05 11:36:00,6.3,1.4,30.51,ESE,112,9.0,15.0,80,0.00,,,0.00,WUHU216DAVISVP2,2014-02-05 17:36:00,
2014-02-05 11:41:00,6.2,1.4,30.51,SE,137,11.0,16.0,80,0.00,,,0.00,WUHU216DAVISVP2,2014-02-05 17:41:00,
2014-02-05 11:46:00,6.2,1.3,30.52,SE,142,14.0,16.0,80,0.00,,,0.00,WUHU216DAVISVP2,2014-02-05 17:46:00,
2014-02-05 11:51:00,6.1,1.3,30.52,ESE,123,4.0,16.0,80,0.00,,,0.00,WUHU216DAVISVP2,2014-02-05 17:51:00,
2014-02-05 11:56:00,6.3,1.5,30.52,SE,133,7.0,16.0,80,0.00,,,0.00,WUHU216DAVISVP2,2014-02-05 17:56:00,
2014-02-05 12:01:00,6.3,1.4,30.52,SSE,163,5.0,16.0,80,0.00,,,0.00,WUHU216DAVISVP2,2014-02-05 18:01:00,
2014-02-05 12:06:00,6.3,1.2,30.52,SE,142,7.0,15.0,79,0.00,,,0.00,WUHU216DAVISVP2,2014-02-05 18:06:00,
2014-02-05 12:11:00,6.7,2.1,30.52,SE,144,8.0,14.0,81,0.00,,,0.00,WUHU216DAVISVP2,2014-02-05 18:11:00,
2014-02-05 12:16:00,6.5,1.3,30.52,ESE,123,8.0,16.0,79,0.00,,,0.00,WUHU216DAVISVP2,2014-02-05 18:16:00,
2014-02-05 12:21:00,6.5,1.7,30.52,SE,133,14.0,16.0,80,0.00,,,0.00,WUHU216DAVISVP2,2014-02-05 18:21:00,
2014-02-05 12:26:00,6.4,1.5,30.52,SE,146,8.0,16.0,80,0.00,,,0.00,WUHU216DAVISVP2,2014-02-05 18:26:00,
2014-02-05 12:31:00,6.9,2.0,30.52,SE,128,11.0,16.0,80,0.00,,,0.00,WUHU216DAVISVP2,2014-02-05 18:31:00,
2014-02-05 12:36:00,6.8,1.6,30.52,SSE,147,9.0,17.0,79,0.00,,,0.00,WUHU216DAVISVP2,2014-02-05 18:36:00,
2014-02-05 12:41:00,6.6,1.5,30.51,South,176,11.0,17.0,79,0.00,,,0.00,WUHU216DAVISVP2,2014-02-05 18:41:00,
2014-02-05 12:46:00,6.8,1.7,30.51,SE,146,11.0,17.0,79,0.00,,,0.00,WUHU216DAVISVP2,2014-02-05 18:46:00,
2014-02-05 12:51:00,7.1,2.0,30.51,SSE,157,7.0,16.0,79,0.00,,,0.00,WUHU216DAVISVP2,2014-02-05 18:51:00,
2014-02-05 12:56:00,7.4,2.3,30.52,SSE,168,12.0,16.0,79,0.00,,,0.00,WUHU216DAVISVP2,2014-02-05 18:56:00,
2014-02-05 13:01:00,7.3,1.9,30.51,SE,129,11.0,16.0,78,0.00,,,0.00,WUHU216DAVISVP2,2014-02-05 19:01:00,
2014-02-05 13:06:00,7.2,1.8,30.51,SSE,150,10.0,16.0,78,0.00,,,0.00,WUHU216DAVISVP2,2014-02-05 19:06:00,
2014-02-05 13:11:00,7.4,2.3,30.51,South,183,9.0,16.0,79,0.00,,,0.00,WUHU216DAVISVP2,2014-02-05 19:11:00,
2014-02-05 13:16:00,7.7,2.6,30.51,SSE,149,8.0,16.0,79,0.00,,,0.00,WUHU216DAVISVP2,2014-02-05 19:16:00,
2014-02-05 13:21:00,7.5,1.8,30.51,SE,129,11.0,16.0,77,0.00,,,0.00,WUHU216DAVISVP2,2014-02-05 19:21:00,
2014-02-05 13:26:00,7.5,2.0,30.51,SE,131,11.0,16.0,78,0.00,,,0.00,WUHU216DAVISVP2,2014-02-05 19:26:00,
2014-02-05 13:31:00,7.5,1.8,30.51,SE,136,7.0,16.0,77,0.00,,,0.00,WUHU216DAVISVP2,2014-02-05 19:31:00,
2014-02-05 13:36:00,7.5,1.8,30.51,SSE,159,12.0,17.0,77,0.00,,,0.00,WUHU216DAVISVP2,2014-02-05 19:36:00,
2014-02-05 13:41:00,7.8,2.4,30.51,SSE,163,9.0,17.0,78,0.00,,,0.00,WUHU216DAVISVP2,2014-02-05 19:41:00,
2014-02-05 13:46:00,8.2,2.5,30.51,SE,128,10.0,17.0,77,0.00,,,0.00,WUHU216DAVISVP2,2014-02-05 19:46:00,
2014-02-05 13:51:00,8.2,2.5,30.51,ESE,115,6.0,17.0,77,0.00,,,0.00,WUHU216DAVISVP2,2014-02-05 19:51:00,
2014-02-05 13:56:00,8.4,2.7,30.51,SE,127,9.0,15.0,77,0.00,,,0.00,WUHU216DAVISVP2,2014-02-05 19:56:00,
2014-02-05 14:01:00,8.4,2.7,30.51,SSE,148,5.0,15.0,77,0.00,,,0.00,WUHU216DAVISVP2,2014-02-05 20:01:00,
2014-02-05 14:06:00,8.7,3.0,30.52,SE,139,10.0,15.0,77,0.00,,,0.00,WUHU216DAVISVP2,2014-02-05 20:06:00,
2014-02-05 14:11:00,8.6,2.6,30.52,SSE,150,7.0,14.0,76,0.00,,,0.00,WUHU216DAVISVP2,2014-02-05 20:11:00,
2014-02-05 14:16:00,8.9,3.1,30.52,SE,139,7.0,14.0,77,0.00,,,0.00,WUHU216DAVISVP2,2014-02-05 20:16:00,
2014-02-05 14:21:00,8.6,2.3,30.52,SE,129,9.0,18.0,75,0.00,,,0.00,WUHU216DAVISVP2,2014-02-05 20:21:00,
2014-02-05 14:26:00,8.7,2.7,30.52,SE,132,7.0,18.0,76,0.00,,,0.00,WUHU216DAVISVP2,2014-02-05 20:26:00,
2014-02-05 14:31:00,8.4,2.2,30.52,SE,134,5.0,18.0,75,0.00,,,0.00,WUHU216DAVISVP2,2014-02-05 20:31:00,
2014-02-05 14:36:00,8.6,2.6,30.52,SE,129,8.0,18.0,76,0.00,,,0.00,WUHU216DAVISVP2,2014-02-05 20:36:00,
2014-02-05 14:41:00,8.8,2.8,30.52,ESE,111,10.0,17.0,76,0.00,,,0.00,WUHU216DAVISVP2,2014-02-05 20:41:00,
2014-02-05 14:46:00,9.1,3.1,30.53,SE,144,5.0,17.0,76,0.00,,,0.00,WUHU216DAVISVP2,2014-02-05 20:46:00,
2014-02-05 14:51:00,9.2,3.2,30.52,ESE,102,10.0,16.0,76,0.00,,,0.00,WUHU216DAVISVP2,2014-02-05 20:51:00,
2014-02-05 14:56:00,9.0,2.8,30.53,SE,137,9.0,15.0,75,0.00,,,0.00,WUHU216DAVISVP2,2014-02-05 20:56:00,
2014-02-05 15:01:00,9.4,3.4,30.53,SE,146,6.0,15.0,76,0.00,,,0.00,WUHU216DAVISVP2,2014-02-05 21:01:00,
2014-02-05 15:06:00,9.6,3.3,30.53,SE,131,9.0,15.0,75,0.00,,,0.00,WUHU216DAVISVP2,2014-02-05 21:06:00,
2014-02-05 15:11:00,9.6,3.0,30.53,ESE,119,6.0,15.0,74,0.00,,,0.00,WUHU216DAVISVP2,2014-02-05 21:11:00,
2014-02-05 15:16:00,9.6,3.3,30.53,SE,136,9.0,15.0,75,0.00,,,0.00,WUHU216DAVISVP2,2014-02-05 21:16:00,
2014-02-05 15:21:00,9.8,3.2,30.53,SE,135,5.0,16.0,74,0.00,,,0.00,WUHU216DAVISVP2,2014-02-05 21:21:00,
2014-02-05 15:26:00,10.0,3.7,30.53,SSE,149,12.0,16.0,75,0.00,,,0.00,WUHU216DAVISVP2,2014-02-05 21:26:00,
2014-02-05 15:31:00,10.2,3.5,30.53,SE,141,7.0,16.0,74,0.00,,,0.00,WUHU216DAVISVP2,2014-02-05 21:31:00,
2014-02-05 15:36:00,10.5,3.8,30.53,SSE,149,12.0,16.0,74,0.00,,,0.00,WUHU216DAVISVP2,2014-02-05 21:36:00,
2014-02-05 15:41:00,10.5,3.9,30.54,ESE,120,6.0,16.0,74,0.00,,,0.00,WUHU216DAVISVP2,2014-02-05 21:41:00,
2014-02-05 15:46:00,10.7,4.1,30.54,SE,128,3.0,15.0,74,0.00,,,0.00,WUHU216DAVISVP2,2014-02-05 21:46:00,
2014-02-05 15:51:00,10.9,4.0,30.54,SE,144,6.0,15.0,73,0.00,,,0.00,WUHU216DAVISVP2,2014-02-05 21:51:00,
2014-02-05 15:56:00,11.3,4.7,30.54,SE,141,8.0,15.0,74,0.00,,,0.00,WUHU216DAVISVP2,2014-02-05 21:56:00,
2014-02-05 16:01:00,11.6,4.6,30.54,SE,136,5.0,14.0,73,0.00,,,0.00,WUHU216DAVISVP2,2014-02-05 22:01:00,
2014-02-05 16:06:00,12.3,5.3,30.54,SE,141,8.0,14.0,73,0.00,,,0.00,WUHU216DAVISVP2,2014-02-05 22:06:00,
2014-02-05 16:11:00,11.9,4.7,30.54,SSE,150,4.0,14.0,72,0.00,,,0.00,WUHU216DAVISVP2,2014-02-05 22:11:00,
2014-02-05 16:16:00,12.1,4.8,30.55,SE,142,10.0,14.0,72,0.00,,,0.00,WUHU216DAVISVP2,2014-02-05 22:16:00,
2014-02-05 16:21:00,12.3,5.3,30.55,SE,130,5.0,14.0,73,0.00,,,0.00,WUHU216DAVISVP2,2014-02-05 22:21:00,
2014-02-05 16:26:00,12.1,4.6,30.56,SSE,148,10.0,16.0,71,0.00,,,0.00,WUHU216DAVISVP2,2014-02-05 22:26:00,
2014-02-05 16:31:00,11.9,4.6,30.56,SE,137,10.0,16.0,72,0.00,,,0.00,WUHU216DAVISVP2,2014-02-05 22:31:00,
2014-02-05 16:36:00,11.8,4.6,30.56,SE,141,7.0,16.0,72,0.00,,,0.00,WUHU216DAVISVP2,2014-02-05 22:36:00,
2014-02-05 16:41:00,11.8,4.5,30.56,SSE,164,8.0,16.0,72,0.00,,,0.00,WUHU216DAVISVP2,2014-02-05 22:41:00,
2014-02-05 16:46:00,11.7,4.5,30.56,SE,141,8.0,16.0,72,0.00,,,0.00,WUHU216DAVISVP2,2014-02-05 22:46:00,
2014-02-05 16:51:00,11.6,4.7,30.56,SSE,152,7.0,16.0,73,0.00,,,0.00,WUHU216DAVISVP2,2014-02-05 22:51:00,
2014-02-05 16:56:00,11.9,5.2,30.56,SSE,164,3.0,16.0,74,0.00,,,0.00,WUHU216DAVISVP2,2014-02-05 22:56:00,
2014-02-05 17:01:00,12.0,5.1,30.56,South,173,6.0,16.0,73,0.00,,,0.00,WUHU216DAVISVP2,2014-02-05 23:01:00,
2014-02-05 17:06:00,12.1,5.1,30.56,SSE,156,8.0,16.0,73,0.00,,,0.00,WUHU216DAVISVP2,2014-02-05 23:06:00,
2014-02-05 17:11:00,12.2,5.3,30.56,SSE,154,8.0,13.0,73,0.00,,,0.00,WUHU216DAVISVP2,2014-02-05 23:11:00,
2014-02-05 17:16:00,12.2,5.2,30.57,SSE,148,7.0,13.0,73,0.00,,,0.00,WUHU216DAVISVP2,2014-02-05 23:16:00,
2014-02-05 17:21:00,12.1,5.2,30.57,SSE,156,6.0,15.0,73,0.00,,,0.00,WUHU216DAVISVP2,2014-02-05 23:21:00,
2014-02-05 17:26:00,12.1,5.4,30.57,South,172,7.0,15.0,74,0.00,,,0.00,WUHU216DAVISVP2,2014-02-05 23:26:00,
2014-02-05 17:31:00,12.3,5.6,30.58,SSE,168,4.0,15.0,74,0.00,,,0.00,WUHU216DAVISVP2,2014-02-05 23:31:00,
2014-02-05 17:36:00,12.3,5.6,30.57,SSE,154,6.0,15.0,74,0.00,,,0.00,WUHU216DAVISVP2,2014-02-05 23:36:00,
2014-02-05 17:41:00,12.4,5.7,30.57,SSE,167,3.0,16.0,74,0.00,,,0.00,WUHU216DAVISVP2,2014-02-05 23:41:00,
2014-02-05 17:46:00,12.6,6.2,30.58,SSE,147,2.0,16.0,75,0.00,,,0.00,WUHU216DAVISVP2,2014-02-05 23:46:00,
2014-02-05 17:51:00,12.8,6.4,30.58,SSE,160,5.0,16.0,75,0.00,,,0.00,WUHU216DAVISVP2,2014-02-05 23:51:00,
2014-02-05 17:56:00,12.9,6.5,30.59,SE,146,8.0,18.0,75,0.00,,,0.00,WUHU216DAVISVP2,2014-02-05 23:56:00,
2014-02-05 18:01:00,13.0,6.6,30.59,SSE,163,8.0,18.0,75,0.00,,,0.00,WUHU216DAVISVP2,2014-02-06 00:01:00,
2014-02-05 18:06:00,13.0,6.3,30.59,SSE,154,6.0,18.0,74,0.00,,,0.00,WUHU216DAVISVP2,2014-02-06 00:06:00,
2014-02-05 18:11:00,12.8,6.1,30.60,SE,144,7.0,18.0,74,0.00,,,0.00,WUHU216DAVISVP2,2014-02-06 00:11:00,
2014-02-05 18:16:00,12.8,6.4,30.60,SSE,157,5.0,17.0,75,0.00,,,0.00,WUHU216DAVISVP2,2014-02-06 00:16:00,
2014-02-05 18:21:00,12.6,6.2,30.60,SE,142,7.0,15.0,75,0.00,,,0.00,WUHU216DAVISVP2,2014-02-06 00:21:00,
2014-02-05 18:26:00,12.2,5.8,30.60,SSE,148,6.0,14.0,75,0.00,,,0.00,WUHU216DAVISVP2,2014-02-06 00:26:00,
2014-02-05 18:31:00,12.0,5.6,30.60,SE,131,9.0,12.0,75,0.00,,,0.00,WUHU216DAVISVP2,2014-02-06 00:31:00,
2014-02-05 18:36:00,11.8,5.5,30.60,SE,132,7.0,12.0,75,0.00,,,0.00,WUHU216DAVISVP2,2014-02-06 00:36:00,
2014-02-05 18:41:00,11.7,5.3,30.61,SE,133,7.0,13.0,75,0.00,,,0.00,WUHU216DAVISVP2,2014-02-06 00:41:00,
2014-02-05 18:46:00,11.6,5.2,30.61,SE,137,8.0,13.0,75,0.00,,,0.00,WUHU216DAVISVP2,2014-02-06 00:46:00,
2014-02-05 18:51:00,11.4,5.1,30.62,SSE,154,8.0,13.0,75,0.00,,,0.00,WUHU216DAVISVP2,2014-02-06 00:51:00,
2014-02-05 18:56:00,11.3,4.9,30.61,SE,141,4.0,12.0,75,0.00,,,0.00,WUHU216DAVISVP2,2014-02-06 00:56:00,
2014-02-05 19:01:00,11.2,4.8,30.61,SSE,155,6.0,14.0,75,0.00,,,0.00,WUHU216DAVISVP2,2014-02-06 01:01:00,
2014-02-05 19:06:00,10.9,4.6,30.61,SE,137,9.0,14.0,75,0.00,,,0.00,WUHU216DAVISVP2,2014-02-06 01:06:00,
2014-02-05 19:11:00,10.7,4.3,30.61,SSE,150,8.0,14.0,75,0.00,,,0.00,WUHU216DAVISVP2,2014-02-06 01:11:00,
2014-02-05 19:16:00,10.4,4.4,30.61,SSE,147,9.0,14.0,76,0.00,,,0.00,WUHU216DAVISVP2,2014-02-06 01:16:00,
2014-02-05 19:21:00,10.3,4.3,30.62,SE,145,5.0,12.0,76,0.00,,,0.00,WUHU216DAVISVP2,2014-02-06 01:21:00,
2014-02-05 19:26:00,10.2,4.1,30.62,SE,139,4.0,11.0,76,0.00,,,0.00,WUHU216DAVISVP2,2014-02-06 01:26:00,
2014-02-05 19:31:00,10.0,4.0,30.63,SSE,156,9.0,14.0,76,0.00,,,0.00,WUHU216DAVISVP2,2014-02-06 01:31:00,
2014-02-05 19:36:00,9.8,3.8,30.63,SSE,168,3.0,14.0,76,0.00,,,0.00,WUHU216DAVISVP2,2014-02-06 01:36:00,
2014-02-05 19:41:00,9.7,3.6,30.63,SSE,154,6.0,14.0,76,0.00,,,0.00,WUHU216DAVISVP2,2014-02-06 01:41:00,
2014-02-05 19:46:00,9.5,3.5,30.64,SE,145,4.0,14.0,76,0.00,,,0.00,WUHU216DAVISVP2,2014-02-06 01:46:00,
2014-02-05 19:51:00,9.4,3.4,30.64,South,173,5.0,14.0,76,0.00,,,0.00,WUHU216DAVISVP2,2014-02-06 01:51:00,
2014-02-05 19:56:00,9.3,3.3,30.64,SSE,164,5.0,14.0,76,0.00,,,0.00,WUHU216DAVISVP2,2014-02-06 01:56:00,
2014-02-05 20:01:00,9.2,3.2,30.64,SSE,161,5.0,14.0,76,0.00,,,0.00,WUHU216DAVISVP2,2014-02-06 02:01:00,
2014-02-05 20:06:00,9.2,3.2,30.64,SSE,164,4.0,14.0,76,0.00,,,0.00,WUHU216DAVISVP2,2014-02-06 02:06:00,
2014-02-05 20:11:00,9.1,3.1,30.64,SSE,165,5.0,11.0,76,0.00,,,0.00,WUHU216DAVISVP2,2014-02-06 02:11:00,
2014-02-05 20:16:00,9.0,3.0,30.65,SSE,151,4.0,10.0,76,0.00,,,0.00,WUHU216DAVISVP2,2014-02-06 02:16:00,
2014-02-05 20:21:00,9.0,3.0,30.65,SSE,152,4.0,10.0,76,0.00,,,0.00,WUHU216DAVISVP2,2014-02-06 02:21:00,
2014-02-05 20:26:00,8.9,2.9,30.64,SSE,168,7.0,11.0,76,0.00,,,0.00,WUHU216DAVISVP2,2014-02-06 02:26:00,
2014-02-05 20:31:00,8.8,2.8,30.64,SSE,162,11.0,13.0,76,0.00,,,0.00,WUHU216DAVISVP2,2014-02-06 02:31:00,
2014-02-05 20:36:00,8.8,2.8,30.64,SSE,152,7.0,13.0,76,0.00,,,0.00,WUHU216DAVISVP2,2014-02-06 02:36:00,
2014-02-05 20:41:00,8.7,2.7,30.64,SSE,150,4.0,13.0,76,0.00,,,0.00,WUHU216DAVISVP2,2014-02-06 02:41:00,
2014-02-05 20:46:00,8.6,2.9,30.64,SSE,162,6.0,12.0,77,0.00,,,0.00,WUHU216DAVISVP2,2014-02-06 02:46:00,
2014-02-05 20:51:00,8.6,2.9,30.64,SSE,164,9.0,12.0,77,0.00,,,0.00,WUHU216DAVISVP2,2014-02-06 02:51:00,
2014-02-05 20:56:00,8.6,2.9,30.64,SSE,158,1.0,11.0,77,0.00,,,0.00,WUHU216DAVISVP2,2014-02-06 02:56:00,
2014-02-05 21:01:00,8.5,2.7,30.65,South,178,3.0,11.0,77,0.00,,,0.00,WUHU216DAVISVP2,2014-02-06 03:01:00,
2014-02-05 21:06:00,8.3,2.6,30.65,SSW,198,11.0,11.0,77,0.00,,,0.00,WUHU216DAVISVP2,2014-02-06 03:06:00,
2014-02-05 21:11:00,8.2,2.5,30.65,SSE,160,6.0,11.0,77,0.00,,,0.00,WUHU216DAVISVP2,2014-02-06 03:11:00,
2014-02-05 21:16:00,8.1,2.4,30.65,SSE,154,5.0,11.0,77,0.00,,,0.00,WUHU216DAVISVP2,2014-02-06 03:16:00,
2014-02-05 21:21:00,7.9,2.2,30.64,South,177,2.0,11.0,77,0.00,,,0.00,WUHU216DAVISVP2,2014-02-06 03:21:00,
2014-02-05 21:26:00,7.9,2.5,30.65,SSE,154,1.0,11.0,78,0.00,,,0.00,WUHU216DAVISVP2,2014-02-06 03:26:00,
2014-02-05 21:31:00,7.9,2.5,30.64,SSW,193,10.0,12.0,78,0.00,,,0.00,WUHU216DAVISVP2,2014-02-06 03:31:00,
2014-02-05 21:36:00,8.0,2.5,30.64,South,183,11.0,12.0,78,0.00,,,0.00,WUHU216DAVISVP2,2014-02-06 03:36:00,
2014-02-05 21:41:00,7.8,2.4,30.63,SSE,160,4.0,13.0,78,0.00,,,0.00,WUHU216DAVISVP2,2014-02-06 03:41:00,
2014-02-05 21:46:00,7.7,2.3,30.64,South,179,2.0,13.0,78,0.00,,,0.00,WUHU216DAVISVP2,2014-02-06 03:46:00,
2014-02-05 21:51:00,7.7,2.3,30.65,South,182,8.0,13.0,78,0.00,,,0.00,WUHU216DAVISVP2,2014-02-06 03:51:00,
2014-02-05 21:56:00,7.6,2.1,30.64,SSW,202,3.0,10.0,78,0.00,,,0.00,WUHU216DAVISVP2,2014-02-06 03:56:00,
2014-02-05 22:01:00,7.4,2.0,30.65,SSE,166,6.0,10.0,78,0.00,,,0.00,WUHU216DAVISVP2,2014-02-06 04:01:00,
2014-02-05 22:06:00,7.3,1.9,30.64,SSE,168,2.0,10.0,78,0.00,,,0.00,WUHU216DAVISVP2,2014-02-06 04:06:00,
2014-02-05 22:11:00,7.3,1.9,30.64,South,181,9.0,10.0,78,0.00,,,0.00,WUHU216DAVISVP2,2014-02-06 04:11:00,
2014-02-05 22:16:00,7.3,1.9,30.64,South,185,2.0,10.0,78,0.00,,,0.00,WUHU216DAVISVP2,2014-02-06 04:16:00,
2014-02-05 22:21:00,7.1,1.5,30.64,South,180,4.0,11.0,77,0.00,,,0.00,WUHU216DAVISVP2,2014-02-06 04:21:00,
2014-02-05 22:26:00,7.1,1.5,30.64,South,191,9.0,14.0,77,0.00,,,0.00,WUHU216DAVISVP2,2014-02-06 04:26:00,
2014-02-05 22:31:00,7.1,1.2,30.65,SSW,202,12.0,15.0,76,0.00,,,0.00,WUHU216DAVISVP2,2014-02-06 04:31:00,
2014-02-05 22:36:00,7.0,1.3,30.65,SSW,212,7.0,15.0,77,0.00,,,0.00,WUHU216DAVISVP2,2014-02-06 04:36:00,
2014-02-05 22:41:00,6.9,0.9,30.64,SW,218,10.0,15.0,76,0.00,,,0.00,WUHU216DAVISVP2,2014-02-06 04:41:00,
2014-02-05 22:46:00,6.6,0.7,30.63,SSW,196,9.0,12.0,76,0.00,,,0.00,WUHU216DAVISVP2,2014-02-06 04:46:00,
2014-02-05 22:51:00,6.4,0.2,30.63,SSW,207,5.0,14.0,75,0.00,,,0.00,WUHU216DAVISVP2,2014-02-06 04:51:00,
2014-02-05 22:56:00,6.3,0.1,30.63,SSW,204,5.0,14.0,75,0.00,,,0.00,WUHU216DAVISVP2,2014-02-06 04:56:00,
2014-02-05 23:01:00,6.2,-0.3,30.63,South,171,4.0,18.0,74,0.00,,,0.00,WUHU216DAVISVP2,2014-02-06 05:01:00,
2014-02-05 23:02:00,6.2,0.0,30.63,SSW,197,7.0,18.0,75,0.00,,,0.00,WUHU216DAVISVP2,2014-02-06 05:02:00,
2014-02-05 23:07:00,6.2,0.0,30.63,South,188,5.0,17.0,75,0.00,,,0.00,WUHU216DAVISVP2,2014-02-06 05:07:00,
2014-02-05 23:12:00,6.2,0.0,30.64,South,175,7.0,17.0,75,0.00,,,0.00,WUHU216DAVISVP2,2014-02-06 05:12:00,
2014-02-05 23:17:00,6.0,-0.1,30.65,South,172,6.0,17.0,75,0.00,,,0.00,WUHU216DAVISVP2,2014-02-06 05:17:00,
2014-02-05 23:22:00,5.9,-0.3,30.64,SSW,193,4.0,14.0,75,0.00,,,0.00,WUHU216DAVISVP2,2014-02-06 05:22:00,
2014-02-05 23:27:00,5.8,-0.4,30.65,SSW,193,10.0,16.0,75,0.00,,,0.00,WUHU216DAVISVP2,2014-02-06 05:27:00,
2014-02-05 23:32:00,5.7,-0.5,30.65,South,184,6.0,16.0,75,0.00,,,0.00,WUHU216DAVISVP2,2014-02-06 05:32:00,
2014-02-05 23:37:00,5.5,-0.7,30.65,SSW,195,5.0,16.0,75,0.00,,,0.00,WUHU216DAVISVP2,2014-02-06 05:37:00,
2014-02-05 23:42:00,5.5,-0.7,30.66,South,185,8.0,16.0,75,0.00,,,0.00,WUHU216DAVISVP2,2014-02-06 05:42:00,
2014-02-05 23:47:00,5.4,-0.8,30.65,SSW,204,3.0,15.0,75,0.00,,,0.00,WUHU216DAVISVP2,2014-02-06 05:47:00,
2014-02-05 23:52:00,5.3,-0.9,30.65,SSW,195,7.0,15.0,75,0.00,,,0.00,WUHU216DAVISVP2,2014-02-06 05:52:00,
2014-02-05 23:57:00,5.3,-0.9,30.65,SSW,198,5.0,15.0,75,0.00,,,0.00,WUHU216DAVISVP2,2014-02-06 05:57:00,